Time,TemperatureF,DewpointF,PressureIn,WindDirection,WindDirectionDegrees,WindSpeedMPH,WindSpeedGustMPH,Humidity,HourlyPrecipIn,Conditions,Clouds,dailyrainin,SoftwareType,DateUTC
2013-02-23 00:03:00,34.0,25.0,30.23,SSE,160,8.0,17.0,69,-99.99,,,-99.99,,2013-02-23 05:03:00,
2013-02-23 00:12:00,34.0,25.0,30.22,SE,140,12.0,-999.0,69,-99.99,,,-99.99,,2013-02-23 05:12:00,
2013-02-23 00:22:00,34.0,25.0,30.22,SSE,160,7.0,-999.0,69,-99.99,,,-99.99,,2013-02-23 05:22:00,
2013-02-23 00:33:00,34.0,25.0,30.22,SSE,160,9.0,-999.0,69,-99.99,,,-99.99,,2013-02-23 05:33:00,
2013-02-23 00:42:00,34.0,25.0,30.22,SSE,150,8.0,-999.0,69,-99.99,,,-99.99,,2013-02-23 05:42:00,
2013-02-23 00:52:00,34.0,25.0,30.22,South,170,9.0,18.0,69,-99.99,,,-99.99,,2013-02-23 05:52:00,
2013-02-23 01:02:00,34.0,25.0,30.22,South,170,9.0,18.0,69,-99.99,,,-99.99,,2013-02-23 06:02:00,
2013-02-23 01:11:00,34.0,25.0,30.22,SSE,150,8.0,16.0,69,-99.99,,,-99.99,,2013-02-23 06:11:00,
2013-02-23 01:22:00,34.0,25.0,30.21,SSE,150,8.0,16.0,69,-99.99,,,-99.99,,2013-02-23 06:22:00,
2013-02-23 01:32:00,34.0,25.0,30.20,SSE,150,9.0,16.0,69,-99.99,,,-99.99,,2013-02-23 06:32:00,
2013-02-23 01:41:00,34.0,25.0,30.20,SSE,160,10.0,16.0,69,-99.99,,,-99.99,,2013-02-23 06:41:00,
2013-02-23 01:51:00,34.0,25.0,30.20,SSE,160,7.0,17.0,69,-99.99,,,-99.99,,2013-02-23 06:51:00,
2013-02-23 02:01:00,34.0,25.0,30.20,SSE,160,7.0,17.0,69,-99.99,,,-99.99,,2013-02-23 07:01:00,
2013-02-23 02:11:00,34.0,25.0,30.20,South,170,8.0,-999.0,69,-99.99,,,-99.99,,2013-02-23 07:11:00,
2013-02-23 02:21:00,34.0,25.0,30.19,SSE,160,9.0,17.0,69,-99.99,,,-99.99,,2013-02-23 07:21:00,
2013-02-23 02:32:00,34.0,25.0,30.19,SSE,150,12.0,18.0,69,-99.99,,,-99.99,,2013-02-23 07:32:00,
2013-02-23 02:42:00,34.0,25.0,30.19,SSE,160,10.0,18.0,69,-99.99,,,-99.99,,2013-02-23 07:42:00,
2013-02-23 02:51:00,34.0,25.0,30.18,SSE,150,9.0,-999.0,69,-99.99,,,-99.99,,2013-02-23 07:51:00,
2013-02-23 03:01:00,34.0,25.0,30.18,SSE,150,9.0,-999.0,69,-99.99,,,-99.99,,2013-02-23 08:01:00,
2013-02-23 03:11:00,34.0,25.0,30.17,SSE,160,9.0,17.0,69,-99.99,,,-99.99,,2013-02-23 08:11:00,
2013-02-23 03:21:00,34.0,27.0,30.16,SE,140,15.0,21.0,74,-99.99,,,-99.99,,2013-02-23 08:21:00,
2013-02-23 03:32:00,34.0,27.0,30.16,SSE,160,14.0,18.0,74,-99.99,,,-99.99,,2013-02-23 08:32:00,
2013-02-23 03:42:00,34.0,27.0,30.16,SSE,150,9.0,18.0,74,-99.99,,,-99.99,,2013-02-23 08:42:00,
2013-02-23 03:52:00,34.0,27.0,30.16,SSE,150,8.0,18.0,74,-99.99,,,-99.99,,2013-02-23 08:52:00,
2013-02-23 04:02:00,34.0,27.0,30.16,SSE,150,8.0,18.0,74,-99.99,,,-99.99,,2013-02-23 09:02:00,
2013-02-23 04:11:00,34.0,27.0,30.16,SSE,150,9.0,-999.0,74,-99.99,,,-99.99,,2013-02-23 09:11:00,
2013-02-23 04:21:00,34.0,27.0,30.16,SSE,150,8.0,-999.0,74,-99.99,,,-99.99,,2013-02-23 09:21:00,
2013-02-23 04:32:00,34.0,27.0,30.16,SSE,160,13.0,18.0,74,-99.99,,,-99.99,,2013-02-23 09:32:00,
2013-02-23 04:42:00,34.0,27.0,30.16,SSE,160,8.0,18.0,74,-99.99,,,-99.99,,2013-02-23 09:42:00,
2013-02-23 04:51:00,34.0,27.0,30.16,SSE,160,8.0,-999.0,74,-99.99,,,-99.99,,2013-02-23 09:51:00,
2013-02-23 05:01:00,34.0,27.0,30.16,SSE,160,8.0,-999.0,74,-99.99,,,-99.99,,2013-02-23 10:01:00,
2013-02-23 05:11:00,34.0,27.0,30.16,SSE,150,9.0,-999.0,74,-99.99,,,-99.99,,2013-02-23 10:11:00,
2013-02-23 05:21:00,34.0,27.0,30.16,SE,140,5.0,-999.0,74,-99.99,,,-99.99,,2013-02-23 10:21:00,
2013-02-23 05:32:00,34.0,28.0,30.15,SSE,150,6.0,-999.0,80,-99.99,,,-99.99,,2013-02-23 10:32:00,
2013-02-23 05:42:00,34.0,28.0,30.15,SE,140,6.0,-999.0,80,-99.99,,,-99.99,,2013-02-23 10:42:00,
2013-02-23 05:51:00,34.0,28.0,30.14,South,170,9.0,-999.0,80,-99.99,,,-99.99,,2013-02-23 10:51:00,
2013-02-23 06:02:00,34.0,28.0,30.14,South,170,9.0,-999.0,80,-99.99,,,-99.99,,2013-02-23 11:02:00,
2013-02-23 06:11:00,34.0,28.0,30.13,SSE,150,8.0,-999.0,80,-99.99,,,-99.99,,2013-02-23 11:11:00,
2013-02-23 06:22:00,34.0,28.0,30.13,SSE,150,7.0,-999.0,80,-99.99,,,-99.99,,2013-02-23 11:22:00,
2013-02-23 06:32:00,34.0,28.0,30.13,South,170,7.0,-999.0,80,-99.99,,,-99.99,,2013-02-23 11:32:00,
2013-02-23 06:42:00,34.0,28.0,30.13,NW,310,3.0,-999.0,80,-99.99,,,-99.99,,2013-02-23 11:42:00,
2013-02-23 06:52:00,34.0,28.0,30.13,SE,130,6.0,-999.0,80,-99.99,,,-99.99,,2013-02-23 11:52:00,
2013-02-23 07:02:00,34.0,28.0,30.13,SE,130,6.0,-999.0,80,-99.99,,,-99.99,,2013-02-23 12:02:00,
2013-02-23 07:11:00,34.0,28.0,30.12,SE,130,6.0,-999.0,80,-99.99,,,-99.99,,2013-02-23 12:11:00,
2013-02-23 07:21:00,34.0,28.0,30.13,SE,140,7.0,-999.0,80,-99.99,,,-99.99,,2013-02-23 12:21:00,
2013-02-23 07:32:00,34.0,28.0,30.12,SE,130,7.0,-999.0,80,-99.99,,,-99.99,,2013-02-23 12:32:00,
2013-02-23 07:42:00,34.0,28.0,30.12,SE,140,8.0,-999.0,80,-99.99,,,-99.99,,2013-02-23 12:42:00,
2013-02-23 07:52:00,34.0,28.0,30.12,ESE,120,5.0,-999.0,80,-99.99,,,-99.99,,2013-02-23 12:52:00,
2013-02-23 08:01:00,34.0,28.0,30.12,ESE,120,5.0,-999.0,80,-99.99,,,-99.99,,2013-02-23 13:01:00,
2013-02-23 08:11:00,34.0,28.0,30.12,ESE,110,5.0,-999.0,80,-99.99,,,-99.99,,2013-02-23 13:11:00,
2013-02-23 08:22:00,34.0,28.0,30.12,ESE,110,5.0,-999.0,80,-99.99,,,-99.99,,2013-02-23 13:22:00,
2013-02-23 08:31:00,34.0,28.0,30.12,ESE,110,3.0,-999.0,80,-99.99,,,-99.99,,2013-02-23 13:31:00,
2013-02-23 08:41:00,34.0,28.0,30.12,SSE,160,10.0,-999.0,80,-99.99,,,-99.99,,2013-02-23 13:41:00,
2013-02-23 08:51:00,34.0,28.0,30.12,SE,140,7.0,-999.0,80,-99.99,,,-99.99,,2013-02-23 13:51:00,
2013-02-23 09:02:00,34.0,28.0,30.12,SE,140,7.0,-999.0,80,-99.99,,,-99.99,,2013-02-23 14:02:00,
2013-02-23 09:11:00,34.0,28.0,30.11,SSE,150,9.0,16.0,80,-99.99,,,-99.99,,2013-02-23 14:11:00,
2013-02-23 09:21:00,34.0,28.0,30.10,SSE,160,9.0,18.0,80,-99.99,,,-99.99,,2013-02-23 14:21:00,
2013-02-23 09:32:00,36.0,28.0,30.10,SE,140,8.0,18.0,74,-99.99,,,-99.99,,2013-02-23 14:32:00,
2013-02-23 09:41:00,36.0,28.0,30.10,SSE,150,12.0,18.0,74,-99.99,,,-99.99,,2013-02-23 14:41:00,
2013-02-23 09:52:00,36.0,28.0,30.10,ESE,120,3.0,-999.0,74,-99.99,,,-99.99,,2013-02-23 14:52:00,
2013-02-23 10:02:00,36.0,28.0,30.10,ESE,120,3.0,-999.0,74,-99.99,,,-99.99,,2013-02-23 15:02:00,
2013-02-23 10:11:00,36.0,28.0,30.09,SE,140,7.0,-999.0,74,-99.99,,,-99.99,,2013-02-23 15:11:00,
2013-02-23 10:21:00,36.0,30.0,30.08,SE,140,9.0,-999.0,80,-99.99,,,-99.99,,2013-02-23 15:21:00,
2013-02-23 10:31:00,36.0,30.0,30.08,SE,140,6.0,-999.0,80,-99.99,,,-99.99,,2013-02-23 15:31:00,
2013-02-23 10:41:00,36.0,30.0,30.07,SE,140,7.0,-999.0,80,-99.99,,,-99.99,,2013-02-23 15:41:00,
2013-02-23 10:51:00,36.0,30.0,30.07,SE,140,6.0,-999.0,80,-99.99,,,-99.99,,2013-02-23 15:51:00,
2013-02-23 11:01:00,36.0,30.0,30.07,SE,140,6.0,-999.0,80,-99.99,,,-99.99,,2013-02-23 16:01:00,
2013-02-23 11:11:00,36.0,30.0,30.06,SE,140,6.0,-999.0,80,-99.99,,,-99.99,,2013-02-23 16:11:00,
2013-02-23 11:21:00,36.0,30.0,30.06,ESE,120,6.0,-999.0,80,-99.99,,,-99.99,,2013-02-23 16:21:00,
2013-02-23 11:31:00,36.0,30.0,30.05,SE,130,6.0,-999.0,80,-99.99,,,-99.99,,2013-02-23 16:31:00,
2013-02-23 11:42:00,36.0,30.0,30.05,SE,140,8.0,-999.0,80,-99.99,,,-99.99,,2013-02-23 16:42:00,
2013-02-23 11:51:00,36.0,30.0,30.05,SE,140,6.0,-999.0,80,-99.99,,,-99.99,,2013-02-23 16:51:00,
2013-02-23 12:01:00,36.0,30.0,30.05,SE,140,6.0,-999.0,80,-99.99,,,-99.99,,2013-02-23 17:01:00,
2013-02-23 12:11:00,36.0,30.0,30.04,North,0,0.0,-999.0,80,-99.99,,,-99.99,,2013-02-23 17:11:00,
2013-02-23 12:21:00,36.0,30.0,30.04,SE,130,6.0,-999.0,80,-99.99,,,-99.99,,2013-02-23 17:21:00,
2013-02-23 12:31:00,36.0,30.0,30.04,ESE,120,5.0,-999.0,80,-99.99,,,-99.99,,2013-02-23 17:31:00,
2013-02-23 12:41:00,36.0,32.0,30.04,SSE,160,6.0,-999.0,86,-99.99,,,-99.99,,2013-02-23 17:41:00,
2013-02-23 12:52:00,36.0,32.0,30.04,ESE,120,6.0,-999.0,86,-99.99,,,-99.99,,2013-02-23 17:52:00,
2013-02-23 13:02:00,36.0,32.0,30.04,ESE,120,6.0,-999.0,86,-99.99,,,-99.99,,2013-02-23 18:02:00,
2013-02-23 13:12:00,36.0,32.0,30.03,SE,130,6.0,-999.0,86,-99.99,,,-99.99,,2013-02-23 18:12:00,
2013-02-23 13:22:00,36.0,34.0,30.03,SE,130,6.0,-999.0,93,-99.99,,,-99.99,,2013-02-23 18:22:00,
2013-02-23 13:32:00,36.0,34.0,30.02,SE,140,9.0,-999.0,93,-99.99,,,-99.99,,2013-02-23 18:32:00,
2013-02-23 13:42:00,36.0,34.0,30.01,SSE,150,10.0,-999.0,93,-99.99,,,-99.99,,2013-02-23 18:42:00,
2013-02-23 13:52:00,36.0,34.0,30.01,SE,140,6.0,-999.0,93,-99.99,,,-99.99,,2013-02-23 18:52:00,
2013-02-23 14:01:00,36.0,34.0,30.01,SE,140,6.0,-999.0,93,-99.99,,,-99.99,,2013-02-23 19:01:00,
2013-02-23 14:11:00,36.0,34.0,30.00,SE,140,8.0,-999.0,93,-99.99,,,-99.99,,2013-02-23 19:11:00,
2013-02-23 14:21:00,36.0,34.0,30.00,SE,140,7.0,-999.0,93,-99.99,,,-99.99,,2013-02-23 19:21:00,
2013-02-23 14:32:00,36.0,34.0,30.00,SE,140,7.0,-999.0,93,-99.99,,,-99.99,,2013-02-23 19:32:00,
2013-02-23 14:41:00,36.0,34.0,29.99,SE,140,6.0,-999.0,93,-99.99,,,-99.99,,2013-02-23 19:41:00,
2013-02-23 14:52:00,36.0,34.0,29.99,SE,140,10.0,-999.0,93,-99.99,,,-99.99,,2013-02-23 19:52:00,
2013-02-23 15:01:00,36.0,34.0,29.99,SE,140,10.0,-999.0,93,-99.99,,,-99.99,,2013-02-23 20:01:00,
2013-02-23 15:11:00,36.0,34.0,29.99,SE,140,6.0,-999.0,93,-99.99,,,-99.99,,2013-02-23 20:11:00,
2013-02-23 15:21:00,36.0,34.0,29.99,ESE,120,5.0,-999.0,93,-99.99,,,-99.99,,2013-02-23 20:21:00,
2013-02-23 15:32:00,36.0,34.0,29.98,ESE,120,6.0,-999.0,93,-99.99,,,-99.99,,2013-02-23 20:32:00,
2013-02-23 15:42:00,36.0,34.0,29.98,SE,140,7.0,-999.0,93,-99.99,,,-99.99,,2013-02-23 20:42:00,
2013-02-23 15:52:00,36.0,34.0,29.97,ESE,110,3.0,-999.0,93,-99.99,,,-99.99,,2013-02-23 20:52:00,
2013-02-23 16:01:00,36.0,34.0,29.97,ESE,110,3.0,-999.0,93,-99.99,,,-99.99,,2013-02-23 21:01:00,
2013-02-23 16:11:00,36.0,34.0,29.97,SE,130,5.0,-999.0,93,-99.99,,,-99.99,,2013-02-23 21:11:00,
2013-02-23 16:22:00,36.0,34.0,29.96,SE,130,7.0,-999.0,93,-99.99,,,-99.99,,2013-02-23 21:22:00,
2013-02-23 16:32:00,36.0,34.0,29.96,ESE,110,5.0,-999.0,93,-99.99,,,-99.99,,2013-02-23 21:32:00,
2013-02-23 16:42:00,36.0,34.0,29.96,SE,130,7.0,-999.0,93,-99.99,,,-99.99,,2013-02-23 21:42:00,
2013-02-23 16:51:00,36.0,34.0,29.96,East,100,3.0,-999.0,93,-99.99,,,-99.99,,2013-02-23 21:51:00,
2013-02-23 17:02:00,36.0,34.0,29.96,East,100,3.0,-999.0,93,-99.99,,,-99.99,,2013-02-23 22:02:00,
2013-02-23 17:11:00,36.0,34.0,29.96,SSE,150,7.0,-999.0,93,-99.99,,,-99.99,,2013-02-23 22:11:00,
2013-02-23 17:22:00,36.0,34.0,29.96,ESE,110,3.0,-999.0,93,-99.99,,,-99.99,,2013-02-23 22:22:00,
2013-02-23 17:32:00,36.0,34.0,29.95,East,100,3.0,-999.0,93,-99.99,,,-99.99,,2013-02-23 22:32:00,
2013-02-23 17:42:00,36.0,34.0,29.95,East,100,3.0,-999.0,93,-99.99,,,-99.99,,2013-02-23 22:42:00,
2013-02-23 17:51:00,36.0,34.0,29.94,East,100,3.0,-999.0,93,-99.99,,,-99.99,,2013-02-23 22:51:00,
2013-02-23 18:01:00,36.0,34.0,29.94,East,100,3.0,-999.0,93,-99.99,,,-99.99,,2013-02-23 23:01:00,
2013-02-23 18:11:00,36.0,34.0,29.94,East,100,3.0,-999.0,93,-99.99,,,-99.99,,2013-02-23 23:11:00,
2013-02-23 18:21:00,36.0,34.0,29.94,East,80,5.0,-999.0,93,-99.99,,,-99.99,,2013-02-23 23:21:00,
2013-02-23 18:32:00,36.0,34.0,29.94,East,80,3.0,-999.0,93,-99.99,,,-99.99,,2013-02-23 23:32:00,
2013-02-23 18:42:00,36.0,34.0,29.94,East,90,3.0,-999.0,93,-99.99,,,-99.99,,2013-02-23 23:42:00,
2013-02-23 18:52:00,36.0,34.0,29.94,East,100,6.0,-999.0,93,-99.99,,,-99.99,,2013-02-23 23:52:00,
2013-02-23 19:01:00,36.0,34.0,29.94,East,100,6.0,-999.0,93,-99.99,,,-99.99,,2013-02-24 00:01:00,
2013-02-23 19:11:00,36.0,34.0,29.94,North,0,0.0,-999.0,93,-99.99,,,-99.99,,2013-02-24 00:11:00,
2013-02-23 19:22:00,36.0,34.0,29.94,North,0,0.0,-999.0,93,-99.99,,,-99.99,,2013-02-24 00:22:00,
2013-02-23 19:32:00,34.0,34.0,29.93,North,0,0.0,-999.0,100,-99.99,,,-99.99,,2013-02-24 00:32:00,
2013-02-23 19:42:00,34.0,34.0,29.93,North,0,0.0,-999.0,100,-99.99,,,-99.99,,2013-02-24 00:42:00,
2013-02-23 19:52:00,34.0,34.0,29.93,ENE,60,3.0,-999.0,100,-99.99,,,-99.99,,2013-02-24 00:52:00,
2013-02-23 20:01:00,34.0,34.0,29.93,ENE,60,3.0,-999.0,100,-99.99,,,-99.99,,2013-02-24 01:01:00,
2013-02-23 20:11:00,34.0,34.0,29.93,East,90,5.0,-999.0,100,-99.99,,,-99.99,,2013-02-24 01:11:00,
2013-02-23 20:22:00,34.0,34.0,29.93,North,0,0.0,-999.0,100,-99.99,,,-99.99,,2013-02-24 01:22:00,
2013-02-23 20:31:00,34.0,34.0,29.93,NNE,30,6.0,-999.0,100,-99.99,,,-99.99,,2013-02-24 01:31:00,
2013-02-23 20:42:00,34.0,32.0,29.93,NE,50,3.0,-999.0,93,-99.99,,,-99.99,,2013-02-24 01:42:00,
2013-02-23 20:51:00,34.0,34.0,29.93,North,0,0.0,-999.0,100,-99.99,,,-99.99,,2013-02-24 01:51:00,
2013-02-23 21:01:00,34.0,34.0,29.93,North,0,0.0,-999.0,100,-99.99,,,-99.99,,2013-02-24 02:01:00,
2013-02-23 21:11:00,34.0,34.0,29.93,ESE,110,5.0,-999.0,100,-99.99,,,-99.99,,2013-02-24 02:11:00,
2013-02-23 21:21:00,36.0,34.0,29.92,SE,140,6.0,-999.0,93,-99.99,,,-99.99,,2013-02-24 02:21:00,
2013-02-23 21:32:00,36.0,34.0,29.92,SE,140,6.0,-999.0,93,-99.99,,,-99.99,,2013-02-24 02:32:00,
2013-02-23 21:42:00,36.0,34.0,29.91,SE,130,6.0,-999.0,93,-99.99,,,-99.99,,2013-02-24 02:42:00,
2013-02-23 21:52:00,36.0,34.0,29.90,SE,130,5.0,-999.0,93,-99.99,,,-99.99,,2013-02-24 02:52:00,
2013-02-23 22:02:00,36.0,34.0,29.90,SE,130,5.0,-999.0,93,-99.99,,,-99.99,,2013-02-24 03:02:00,
2013-02-23 22:11:00,36.0,34.0,29.90,SE,130,5.0,-999.0,93,-99.99,,,-99.99,,2013-02-24 03:11:00,
2013-02-23 22:22:00,36.0,34.0,29.89,SE,130,6.0,-999.0,93,-99.99,,,-99.99,,2013-02-24 03:22:00,
2013-02-23 22:32:00,36.0,34.0,29.89,East,100,3.0,-999.0,93,-99.99,,,-99.99,,2013-02-24 03:32:00,
2013-02-23 22:42:00,36.0,34.0,29.89,ESE,120,5.0,-999.0,93,-99.99,,,-99.99,,2013-02-24 03:42:00,
2013-02-23 22:52:00,36.0,34.0,29.88,ESE,120,6.0,-999.0,93,-99.99,,,-99.99,,2013-02-24 03:52:00,
2013-02-23 23:02:00,36.0,34.0,29.88,ESE,120,6.0,-999.0,93,-99.99,,,-99.99,,2013-02-24 04:02:00,
2013-02-23 23:11:00,36.0,34.0,29.88,ESE,110,3.0,-999.0,93,-99.99,,,-99.99,,2013-02-24 04:11:00,
2013-02-23 23:21:00,36.0,34.0,29.87,East,90,3.0,-999.0,93,-99.99,,,-99.99,,2013-02-24 04:21:00,
2013-02-23 23:32:00,36.0,34.0,29.88,North,0,0.0,-999.0,93,-99.99,,,-99.99,,2013-02-24 04:32:00,
2013-02-23 23:42:00,36.0,34.0,29.88,North,0,0.0,-999.0,93,-99.99,,,-99.99,,2013-02-24 04:42:00,
2013-02-23 23:52:00,36.0,34.0,29.87,North,0,0.0,-999.0,93,-99.99,,,-99.99,,2013-02-24 04:52:00,